Simultaneous Nadir Overpasses (SNOs) Predictions

Prediction of SNOs between GOES-17 and AQUA Satellite Orbit:

Table of predicted SNOs for the next 14.0 days since TLE Epoch: 6/1/2024
Index Date Time (GOES-17) GOES-17 Lat,Lon AQUA Lat,Lon Distance(km) Time Diff (sec)
1 06/02/2024 09:06:44 -0.00,-104.71 0.01,-104.65 7.08 80
2 06/04/2024 08:50:15 -0.01,-104.72 -0.91,-100.63 465.45 80
3 06/04/2024 21:10:32 0.01,-104.72 -0.17,-105.54 93.02 80
4 06/06/2024 20:56:41 0.01,-104.72 0.68,-101.49 366.24 80
5 06/07/2024 09:16:50 -0.02,-104.72 0.31,-106.38 187.65 80
6 06/09/2024 08:57:38 -0.02,-104.73 -0.52,-102.33 272.14 80
7 06/09/2024 21:17:54 0.02,-104.72 -0.53,-107.24 286.25 80
8 06/11/2024 21:04:03 0.01,-104.73 0.35,-103.20 174.73 80
9 06/12/2024 09:24:09 -0.01,-104.74 0.73,-108.06 378.55 80
10 06/14/2024 09:04:56 -0.00,-104.75 -0.13,-104.01 83.14 80
11 06/14/2024 21:25:13 0.01,-104.75 -0.89,-108.93 475.11 80
